Weather reports worldwide

Advertisment
Poughkeepsie, ny, United States of America (2074797): temperature & dewpoint: 11.07.2019 03:00:00 - 17.07.2019 03:00:00 (EDT)Poughkeepsie, ny, United States of America (2074797): wind speed: 11.07.2019 03:00:00 - 17.07.2019 03:00:00 (EDT)Poughkeepsie, ny, United States of America (2074797): wind direction: 11.07.2019 03:00:00 - 17.07.2019 03:00:00 (EDT)Poughkeepsie, ny, United States of America (2074797): reduced air pressure: 11.07.2019 03:00:00 - 17.07.2019 03:00:00 (EDT)Poughkeepsie, ny, United States of America (2074797): visibility: 11.07.2019 03:00:00 - 17.07.2019 03:00:00 (EDT)Poughkeepsie, ny, United States of America (2074797): precipitation: 11.07.2019 03:00:00 - 17.07.2019 03:00:00 (EDT)
Date & Time tt [°C] td [°C] ff [km/h] ff [kn] dd ppp [hPa] vv [km] rr [mm]
17.07.2019 03:00:00 22,8 20,6 0 0 N 1014,0 16 -
17.07.2019 02:00:00 22,2 20,6 5 3 SE 1014,5 16 -
17.07.2019 01:00:00 22,8 21,1 8 4 SE 1014,7 16 -
17.07.2019 00:00:00 23,9 21,7 5 3 S 1014,9 16 -
16.07.2019 23:00:00 23,9 21,7 0 0 N 1015,1 16 0,3
16.07.2019 22:00:00 25,6 21,1 0 0 N 1015,5 11 0,5
16.07.2019 21:00:00 29,4 19,4 8 4 SSW 1014,7 16 -
16.07.2019 20:00:00 30,0 19,4 5 3 S 1014,3 16 -
16.07.2019 19:00:00 32,2 18,9 9 5 SSW 1014,1 16 -
16.07.2019 18:00:00 32,2 18,3 13 7 SSW 1013,9 16 -
16.07.2019 17:00:00 32,8 18,3 9 5 - 1014,1 16 -
16.07.2019 16:00:00 32,8 17,2 24 13 SW 1014,7 16 -
16.07.2019 15:00:00 32,8 17,2 22 12 SSW 1015,2 16 -
16.07.2019 14:00:00 32,2 16,1 11 6 SW 1015,6 16 -
16.07.2019 13:00:00 31,7 15,6 13 7 SW 1016,4 16 -
16.07.2019 12:00:00 30,0 16,1 13 7 SSW 1016,8 16 -
16.07.2019 11:00:00 28,3 16,1 11 6 SW 1017,2 16 -
16.07.2019 10:00:00 25,6 16,1 5 3 W 1017,7 16 -
16.07.2019 09:00:00 22,8 15,6 0 0 N 1018,1 16 -
16.07.2019 08:00:00 19,4 15,0 0 0 N 1018,4 16 -
16.07.2019 07:00:00 17,2 13,9 0 0 N 1018,1 16 -
16.07.2019 06:00:00 15,0 13,3 0 0 N 1018,0 16 -
16.07.2019 05:00:00 15,0 13,9 0 0 N 1017,5 16 -
16.07.2019 04:00:00 15,6 13,3 0 0 N 1017,3 16 -
16.07.2019 03:00:00 16,1 13,9 0 0 N 1017,4 16 -
16.07.2019 02:00:00 16,7 14,4 0 0 N 1017,5 16 -
16.07.2019 01:00:00 17,2 14,4 0 0 N 1017,4 16 -
16.07.2019 00:00:00 17,8 14,4 5 3 ESE 1017,5 16 -
15.07.2019 23:00:00 19,4 14,4 0 0 N 1016,9 16 -
15.07.2019 22:00:00 20,6 14,4 0 0 N 1016,6 16 -
15.07.2019 21:00:00 22,8 13,9 0 0 N 1016,2 16 -
15.07.2019 20:00:00 26,7 12,8 11 6 NE 1015,6 16 -
15.07.2019 19:00:00 29,4 13,3 13 7 NNE 1015,0 16 -
15.07.2019 18:00:00 31,7 13,3 11 6 N 1014,5 16 -
15.07.2019 17:00:00 31,7 12,2 - - - 1014,7 16 -
15.07.2019 16:00:00 30,6 13,3 8 4 SSW 1014,9 16 -
15.07.2019 15:00:00 30,6 13,3 0 0 N 1015,4 16 -
15.07.2019 14:00:00 28,9 12,2 5 3 - 1016,1 16 -
15.07.2019 13:00:00 28,3 11,7 9 5 - 1016,8 16 -
15.07.2019 12:00:00 26,7 13,9 9 5 SW 1017,3 16 -
15.07.2019 11:00:00 26,1 14,4 5 3 - 1017,7 16 -
15.07.2019 10:00:00 24,4 15,6 8 4 - 1017,9 16 -
15.07.2019 09:00:00 22,8 15,0 0 0 N 1018,1 16 -
15.07.2019 08:00:00 20,0 15,6 0 0 N 1017,8 16 -
15.07.2019 07:00:00 16,7 13,9 0 0 N 1017,6 16 -
15.07.2019 06:00:00 14,4 13,3 0 0 N 1017,4 16 -
15.07.2019 05:00:00 15,0 13,9 0 0 N 1017,0 16 -
15.07.2019 04:00:00 16,1 13,9 5 3 SSE 1016,5 16 -
15.07.2019 03:00:00 16,1 13,3 0 0 N 1016,1 16 -
15.07.2019 02:00:00 16,7 13,9 0 0 N 1016,0 16 -
15.07.2019 01:00:00 18,9 14,4 0 0 N 1015,8 16 -
15.07.2019 00:00:00 22,8 12,8 0 0 N 1015,5 16 -
14.07.2019 23:00:00 23,3 13,3 9 5 WNW 1015,1 16 -
14.07.2019 22:00:00 23,9 13,9 11 6 NW 1014,8 16 -
14.07.2019 21:00:00 26,1 13,9 5 3 W 1014,2 16 -
14.07.2019 20:00:00 27,8 13,9 9 5 NW 1013,3 16 -
14.07.2019 19:00:00 29,4 13,9 13 7 NW 1012,6 16 -
14.07.2019 18:00:00 31,1 13,3 13 7 NW 1012,4 16 -
14.07.2019 17:00:00 31,7 12,8 16 9 NNW 1012,3 16 -
14.07.2019 16:00:00 31,7 11,7 22 12 NNW 1012,3 16 -
14.07.2019 15:00:00 31,1 12,8 16 9 WNW 1012,0 16 -
14.07.2019 14:00:00 31,1 12,2 21 11 W 1012,1 16 -
14.07.2019 13:00:00 31,1 13,9 16 9 W 1012,3 16 -
14.07.2019 12:00:00 29,4 16,7 9 5 - 1012,3 16 -
14.07.2019 11:00:00 28,3 18,3 8 4 SW 1012,4 16 -
14.07.2019 10:00:00 28,3 17,8 5 3 - 1012,4 16 -
14.07.2019 09:00:00 26,7 17,8 8 4 SW 1012,4 16 -
14.07.2019 08:00:00 24,4 18,3 0 0 N 1012,3 16 -
14.07.2019 07:00:00 21,7 18,3 0 0 N 1011,9 16 -
14.07.2019 06:00:00 19,4 17,2 0 0 N 1011,7 16 -
14.07.2019 05:00:00 20,6 17,2 0 0 N 1011,5 16 -
14.07.2019 04:00:00 21,1 17,2 0 0 N 1011,3 16 -
14.07.2019 03:00:00 20,6 17,8 0 0 N 1011,0 16 -
14.07.2019 02:00:00 20,0 18,3 0 0 N 1011,3 16 -
14.07.2019 01:00:00 21,7 18,9 0 0 N 1011,4 16 -
14.07.2019 00:00:00 21,7 18,9 0 0 N 1011,7 16 -
13.07.2019 23:00:00 22,2 18,9 0 0 N 1012,0 16 -
13.07.2019 22:00:00 23,3 18,9 0 0 N 1011,7 16 -
13.07.2019 21:00:00 26,1 18,9 0 0 N 1011,2 16 -
13.07.2019 20:00:00 28,3 18,3 8 4 S 1010,9 16 -
13.07.2019 19:00:00 30,0 16,7 9 5 SSW 1010,5 16 -
13.07.2019 18:00:00 30,0 15,6 15 8 SW 1010,8 16 -
13.07.2019 17:00:00 29,4 16,7 11 6 - 1011,3 16 -
13.07.2019 16:00:00 30,0 16,7 16 9 WSW 1011,5 16 -
13.07.2019 15:00:00 28,9 16,7 13 7 SW 1012,0 16 -
13.07.2019 14:00:00 27,8 16,1 8 4 - 1012,4 16 -
13.07.2019 13:00:00 26,7 16,7 11 6 WSW 1013,0 16 -
13.07.2019 12:00:00 26,7 16,7 8 4 - 1013,2 16 -
13.07.2019 11:00:00 25,0 16,1 0 0 N 1013,5 16 -
13.07.2019 10:00:00 25,0 16,1 9 5 - 1013,5 16 -
13.07.2019 09:00:00 22,2 16,7 0 0 N 1013,7 16 -
13.07.2019 08:00:00 21,1 17,2 0 0 N 1013,3 16 -
13.07.2019 07:00:00 17,8 15,6 0 0 N 1012,6 16 -
13.07.2019 06:00:00 16,1 15,0 0 0 N 1012,2 16 -
13.07.2019 05:00:00 16,1 15,0 0 0 N 1011,6 16 -
13.07.2019 04:00:00 16,7 15,0 0 0 N 1011,0 16 -
13.07.2019 03:00:00 17,2 15,6 0 0 N 1010,8 16 -
13.07.2019 02:00:00 17,8 16,1 0 0 N 1010,7 16 -
13.07.2019 01:00:00 18,3 16,1 0 0 N 1010,6 16 -
13.07.2019 00:00:00 20,0 16,1 5 3 WSW 1010,6 16 -
12.07.2019 23:00:00 21,1 16,1 5 3 SE 1010,3 16 -
12.07.2019 22:00:00 22,8 16,1 8 4 W 1009,7 16 -
12.07.2019 21:00:00 24,4 16,1 9 5 WSW 1008,8 16 -
12.07.2019 20:00:00 25,6 16,1 9 5 - 1008,4 16 -
12.07.2019 19:00:00 26,7 15,6 18 10 NNW 1007,6 16 -
12.07.2019 18:00:00 27,8 15,0 22 12 NW 1006,8 16 -
12.07.2019 17:00:00 29,4 15,0 24 13 NNW 1006,3 16 -
12.07.2019 16:00:00 28,9 16,7 15 8 N 1006,1 16 -
12.07.2019 15:00:00 29,4 17,8 11 6 WNW 1005,9 16 -
12.07.2019 14:00:00 29,4 19,4 21 11 N 1005,9 16 -
12.07.2019 13:00:00 28,3 18,9 5 3 - 1005,6 16 -
12.07.2019 12:00:00 27,2 20,6 9 5 NW 1006,1 16 -
12.07.2019 11:00:00 27,2 20,6 0 0 N 1006,2 16 -
12.07.2019 10:00:00 26,7 20,6 0 0 N 1006,0 16 -
12.07.2019 09:00:00 25,6 21,1 0 0 N 1005,7 16 -
12.07.2019 08:00:00 23,3 20,6 5 3 W 1005,4 16 -
12.07.2019 07:00:00 21,7 20,6 0 0 N 1005,4 15 -
12.07.2019 06:00:00 21,7 20,6 5 3 S 1005,0 16 -
12.07.2019 05:00:00 21,7 20,6 5 3 SSW 1004,6 16 -
12.07.2019 04:00:00 22,8 21,1 0 0 N 1005,0 16 -
12.07.2019 03:00:00 22,2 21,1 0 0 N 1005,8 16 -
12.07.2019 02:00:00 22,8 21,1 5 3 E 1006,0 16 -
12.07.2019 01:00:00 22,8 21,1 0 0 N 1006,6 16 -
12.07.2019 00:00:00 22,8 21,1 0 0 N 1007,7 16 -
11.07.2019 23:00:00 23,3 21,1 0 0 N 1007,8 16 -
11.07.2019 22:00:00 23,3 21,1 5 3 SE 1008,8 16 -
11.07.2019 21:00:00 22,8 21,1 5 3 ESE 1008,8 16 -
11.07.2019 20:00:00 22,8 20,6 5 3 E 1009,1 16 0,5
11.07.2019 19:00:00 23,9 19,4 5 3 - 1009,4 16 0,0
11.07.2019 18:00:00 25,6 19,4 13 7 SSE 1009,4 16 -
11.07.2019 17:00:00 26,7 18,3 16 9 S 1009,6 16 -
11.07.2019 16:00:00 28,3 18,9 11 6 S 1009,9 16 -
11.07.2019 15:00:00 29,4 17,8 9 5 S 1010,1 16 -
11.07.2019 14:00:00 30,0 17,2 16 9 SSE 1010,9 16 -
11.07.2019 13:00:00 30,0 17,2 15 8 S 1011,5 16 -
11.07.2019 12:00:00 29,4 18,3 11 6 - 1012,0 16 -
11.07.2019 11:00:00 27,8 19,4 11 6 S 1012,5 16 -
11.07.2019 10:00:00 26,7 19,4 8 4 SSW 1012,9 16 -
11.07.2019 09:00:00 26,1 18,9 11 6 SW 1013,7 16 -
11.07.2019 08:00:00 25,0 20,0 9 5 SE 1013,9 16 -
11.07.2019 07:00:00 22,8 20,0 5 3 SE 1013,8 16 -
11.07.2019 06:00:00 21,7 20,0 0 0 N 1013,6 16 -
11.07.2019 05:00:00 22,2 20,0 5 3 ESE 1013,3 16 -
11.07.2019 04:00:00 22,2 20,0 0 0 N 1013,3 16 -
11.07.2019 03:00:00 22,8 20,0 0 0 N 1013,6 16 -

tt = temperature
td = dewpoint
ff = wind speed
dd = wind direction
ppp = reduced air pressure
vv = visibility
rr = precipitation

Next stations